This demonstration page uses our WeatherBlox Daily Observations layout. Learn more.

Left ArrowRight Arrow

44.89941, -97.11507

Hourly Observations for April 21, 2019

Temp ( °F °C ) Dew Point ( °F °C ) Humidity (%) Winds ( mph kmh ) Pressure ( in mb ) Visibility ( mi km ) Precip ( " mm )
12:53 am 00:53 Clear 53 11.7 48 8.9 83 83 NE 10 17 29.62 1003 10 16 0.00 0.00
1:53 am 01:53 Clear 52 11.1 46 7.8 80 80 NE 8 13 29.60 1002 10 16 0.00 0.00
2:53 am 02:53 Clear 51 10.6 45 7.2 80 80 NE 15 24 29.59 1002 10 16 0.00 0.00
3:53 am 03:53 Clear 49 9.4 44 6.7 83 83 NNE 15 24 29.61 1003 10 16 0.00 0.00
4:53 am 04:53 Clear 49 9.4 43 6.1 80 80 NNE 20 31 29.62 1003 10 16 0.00 0.00
5:53 am 05:53 Clear 48 8.9 43 6.1 83 83 NNE 23 37 29.63 1004 10 16 0.00 0.00
6:53 am 06:53 Sunny 48 8.9 43 6.1 83 83 NE 20 31 29.66 1004 10 16 0.00 0.00
7:53 am 07:53 Sunny 49 9.4 44 6.7 83 83 NE 15 24 29.72 1007 10 16 0.00 0.00
8:53 am 08:53 Sunny 52 11.1 44 6.7 75 75 NE 17 28 29.72 1007 10 16 0.00 0.00
9:53 am 09:53 Sunny 55 12.8 44 6.7 67 67 ENE 14 22 29.73 1007 10 16 0.00 0.00
10:53 am 10:53 Sunny 59 15 45 7.2 60 60 NE 16 26 29.76 1008 10 16 0.00 0.00
11:53 am 11:53 Sunny 60 15.6 46 7.8 60 60 NE 17 28 29.76 1008 10 16 0.00 0.00
12:53 pm 12:53 Sunny 62 16.7 47 8.3 58 58 NE 15 24 29.77 1008 10 16 0.00 0.00
1:53 pm 13:53 Sunny 65 18.3 48 8.9 54 54 NNE 21 33 29.79 1009 10 16 0.00 0.00
2:53 pm 14:53 Mostly Sunny 65 18.3 49 9.4 56 56 NNE 22 35 29.80 1009 10 16 0.00 0.00
3:35 pm 15:35 Mostly Cloudy 64 17.8 49 9.4 58 58 NE 22 35 29.77 1008 10 16 0.00 0.00
3:53 pm 15:53 Mostly Cloudy 62 16.7 49 9.4 62 62 NNE 24 39 29.82 1010 10 16 0.00 0.00
4:45 pm 16:45 Mostly Cloudy 61 16.1 48 8.9 63 63 NNE 24 39 29.80 1009 10 16 0.00 0.00
4:53 pm 16:53 Mostly Cloudy 60 15.6 48 8.9 65 65 NNE 23 37 29.84 1011 10 16 0.00 0.00
5:09 pm 17:09 Partly Cloudy 59 15 47 8.3 64 64 NNE 25 41 29.82 1010 10 16 0.00 0.00
5:53 pm 17:53 Sunny 57 13.9 46 7.8 67 67 NNE 25 41 29.86 1011 10 16 0.00 0.00
6:53 pm 18:53 Sunny 56 13.3 45 7.2 67 67 NNE 23 37 29.88 1012 10 16 0.00 0.00
7:53 pm 19:53 Sunny 53 11.7 44 6.7 72 72 NNE 21 33 29.91 1013 10 16 0.00 0.00
8:53 pm 20:53 Cloudy 51 10.6 44 6.7 77 77 NNE 18 30 29.94 1014 10 16 0.00 0.00
9:53 pm 21:53 Cloudy with Light Rain 49 9.4 44 6.7 83 83 NNE 17 28 29.97 1015 10 16 0.00 0.03
10:53 pm 22:53 Cloudy 47 8.3 41 5 80 80 NE 29 46 29.95 1014 10 16 0.00 0.03
11:53 pm 23:53 Clear 46 7.8 40 4.4 79 79 NE 23 37 29.93 1014 10 16 0.01 0.25

Powered by AerisWeather